[Iaude] MPEC T148: 2023 TE5 [a=2.40,e=0.57,i=1.7,H=26.5]
    mpec at marsden.cfa.harvard.edu 
    mpec at marsden.cfa.harvard.edu
       
    Wed Oct 11 01:28:57 EDT 2023
    
    
  
M.P.E.C. 2023-T148                             Issued 2023 October 11, 05:27 UT
     The Minor Planet Electronic Circulars contain information on unusual
         minor planets, routine data on comets and natural satellites,
         and occasional editorial announcements.  They are published
    on behalf of Division F of the International Astronomical Union by the
          Minor Planet Center, Smithsonian Astrophysical Observatory,
                          Cambridge, MA 02138, U.S.A.
			  
             Prepared using the Tamkin Foundation Computer Network
                              MPC at CFA.HARVARD.EDU
            URL https://www.minorplanetcenter.net/    ISSN 1523-6714
                                    2023 TE5                                    
Observations:
     K23T05E 1C2023 10 05.11027 22 16 11.67 +12 19 49.2          21.8 GVET148G96
     K23T05E 1C2023 10 05.11588 22 16 16.75 +12 20 38.3          21.2 GVET148G96
     K23T05E 1C2023 10 05.12149 22 16 21.84 +12 21 25.8          21.6 GVET148G96
     K23T05E*1C2023 10 10.20684723 40 08.540+22 49 52.72         21.41GVET148G96
     K23T05E 1C2023 10 10.21202323 40 13.177+22 50 22.70         21.40GVET148G96
     K23T05E 1C2023 10 10.21719323 40 17.864+22 50 52.37         21.45GVET148G96
     K23T05E 1C2023 10 10.22236623 40 22.598+22 51 23.54         21.07GVET148G96
     K23T05E KC2023 10 10.30563423 41 38.159+22 59 23.46         21.33GVET148I52
     K23T05E KC2023 10 10.31498923 41 46.698+23 00 15.98         21.21GVET148I52
     K23T05E KC2023 10 11.08354023 54 10.650+24 10 06.40         21.30GVET148V06
     K23T05E KC2023 10 11.08561123 54 12.500+24 10 17.80         21.04GVET148V06
     K23T05E KC2023 10 11.08768523 54 14.430+24 10 28.50         21.71GVET148V06
     K23T05E KC2023 10 11.08976223 54 16.320+24 10 40.10         21.48GVET148V06
     K23T05E KC2023 10 11.11287423 54 36.48 +24 12 43.0          21.1 GXET148858
     K23T05E KC2023 10 11.12861723 54 50.64 +24 14 07.8          21.4 GXET148858
     K23T05E  C2023 10 11.16724923 55 25.214+24 17 35.10         20.6 GVET148H01
     K23T05E  C2023 10 11.17198223 55 29.389+24 18 00.27         21.1 GVET148H01
     K23T05E  C2023 10 11.18134723 55 37.668+24 18 49.44         21.1 GVET148H01
     K23T05E  C2023 10 11.18818723 55 43.698+24 19 25.31         21.1 GVET148H01
Observer details:
858 Tebbutt Observatory, Edgewood.  Observer F. B. Zoltowski.  0.51-m f/8.1
    Schmidt-Cassegrain + CCD.
G96 Mt. Lemmon Survey.  Observers G. J. Leonard, D. Rankin.  Measurers B.
    Gray, D. Rankin, F. C. Shelly, E. C. Beshore, D. Fay, J. B. Fazekas, D. C.
    Fuls, A. R. Gibbs, A. D. Grauer, H. Groeller, J. K. Hogan, R. A. Kowalski,
    S. M. Larson, G. J. Leonard, R. L. Seaman, K. W. Wierzchos.  1.5-m
    reflector + 10K CCD.
H01 Magdalena Ridge Observatory, Socorro.  Observers W. H. Ryan, E. V. Ryan.
    Measurer W. H. Ryan.  2.4-m f/8.9 Ritchey-Chretien + CCD.
I52 Steward Observatory, Mt. Lemmon Station.  Observer J. B. Fazekas.
    Measurers E. C. Beshore, D. Fay, J. B. Fazekas, D. C. Fuls, A. R. Gibbs,
    A. D. Grauer, H. Groeller, J. K. Hogan, R. A. Kowalski, S. M. Larson, G.
    J. Leonard, D. Rankin, R. L. Seaman, F. C. Shelly, K. W. Wierzchos.  1.0-m
    prime focus + CCD.
V06 Catalina Sky Survey-Kuiper.  Observer J. B. Fazekas.  Measurers E. C.
    Beshore, D. Fay, J. B. Fazekas, D. C. Fuls, A. R. Gibbs, A. D. Grauer, H.
    Groeller, J. K. Hogan, R. A. Kowalski, S. M. Larson, G. J. Leonard, D.
    Rankin, R. L. Seaman, F. C. Shelly, K. W. Wierzchos.  1.55-m reflector +
    1K CCD.
Orbital elements:
2023 TE5                                                 Earth MOID = 0.0393 AU
Epoch 2023 Sept. 13.0 TT = JDT 2460200.5                Veres                   
M 355.89625              (2000.0)            P               Q                  
n   0.26557010     Peri.   30.37681     +0.99916552     -0.03825840             
a   2.3970841      Node   331.80506     +0.02865340     +0.90610877             
e   0.5661585      Incl.    1.73472     +0.02910764     +0.42131129             
P   3.71           H   26.54          G   0.15           U   8                  
Residuals in seconds of arc
231005 G96  0.4+  0.3-    231010 I52  0.1-  0.2+    231011 858  0.2+  0.7+
231005 G96  0.1-  0.6+    231010 I52  0.2+  0.0     231011 H01  0.1+  0.0
231005 G96  0.3-  0.1-    231011 V06  0.1+  0.5+    231011 H01  0.1-  0.3+
231010 G96  0.8+  0.5+    231011 V06  0.4-  0.6+    231011 H01  0.1-  0.2+
231010 G96  0.2-  0.1-    231011 V06  0.2+  0.1-    231011 H01  0.2-  0.3+
231010 G96  0.3-  0.9-    231011 V06  0.3+  0.2+
231010 G96  0.2+  0.1-    231011 858  0.4-  0.6+
Ephemeris:
2023 TE5                 a,e,i = 2.40, 0.57, 2                   q = 1.0400
Date    TT    R. A. (2000) Decl.     Delta      r    Elong.  Phase     V
2023 09 11    19 00 51.1 -19 47 08   0.1145  1.0631   116.6    57.9    24.1
...
2023 09 26    20 20 03.7 -06 40 24   0.06711 1.0404   122.5    54.4    22.7
...
2023 10 04    21 58 37.3 +09 42 22   0.05364 1.0423   140.2    37.9    21.8
...
2023 10 10    23 36 45.0 +22 29 51   0.05662 1.0502   154.4    24.3    21.5
2023 10 11    23 52 43.2 +24 03 32   0.05829 1.0520   155.8    22.9    21.6
2023 10 12    00 08 07.4 +25 25 02   0.06025 1.0540   156.9    21.8    21.6
...
2023 10 18    01 24 09.2 +29 58 30   0.07690 1.0689   159.3    19.2    22.1
...
2023 10 26    02 23 53.3 +30 53 41   0.1075  1.0962   160.4    17.7    22.8
...
2023 11 10    03 09 43.4 +29 05 17   0.1803  1.1672   167.5    10.6    23.8
M. P. C. Staff               (C) Copyright 2023 MPC           M.P.E.C. 2023-T148
    
    
More information about the Iaude
mailing list